Weather History for Whiteman AFB, MO

Change the Weather History Date:

Thursday, May 15, 2014

  Actual Average Record
Temperature  
Mean Temperature 51 °F -  
Max Temperature 59 °F 73 °F 86 °F (2001)
Min Temperature 43 °F 54 °F 41 °F (2004)
Degree Days  
Heating Degree Days 14    
Growing Degree Days 1 (Base 50)    
Moisture  
Dew Point 32 °F    
Average Humidity 55    
Maximum Humidity 86    
Minimum Humidity 17    
Precipitation  
Precipitation 0.02 in - - ()
Sea Level Pressure  
Sea Level Pressure 30.11 in    
Wind  
Wind Speed 8 mph (WNW)    
Max Wind Speed 20 mph    
Max Gust Speed 30 mph    
Visibility 10 miles    
Events Rain    
Averages and records for this station are not official NWS values.
T = Trace of Precipitation, MM = Missing Value Source: NWS Daily Summary

Daily Weather History Graph

Daily Weather History Graph

Search for Another Location

Airport:

Trip Planner

Search our weather history database for the weather conditions in past years. The results will help you decide how hot, cold, wet, or windy it might be!

Date:

Astronomy

May. 15, 2014 Rise Set
Actual Time 6:02 AM CDT 8:19 PM CDT
Civil Twilight 5:32 AM CDT 8:49 PM CDT
Nautical Twilight 4:55 AM CDT 9:26 PM CDT
Astronomical Twilight 4:15 AM CDT 10:07 PM CDT
Moon 9:28 PM CDT (5/15) 6:49 AM CDT (5/15)
Length of Visible Light 15h 17m
Length of Day
14h 17m
Full, 99% of the Moon is Illuminated
May 15
Full
May 21
Last Quarter
May 28
New
Jun 5
First Quarter
Jun 12
Full

Hourly Weather History & Observations

Time (CDT) Temp. Windchill Dew Point Humidity Pressure Visibility Wind Dir Wind Speed Gust Speed Precip Events Conditions
12:19 AM 48.2 °F - 39.2 °F 71% 30.13 in 10.0 mi WSW 8.1 mph - N/A Rain Light Rain
12:58 AM 49.8 °F - 38.7 °F 65% 30.13 in 9.0 mi Calm Calm - 0.00 in Rain Light Rain
1:46 AM 48.2 °F - 42.8 °F 82% 30.12 in 10.0 mi SW 4.6 mph - N/A   Overcast
1:58 AM 47.8 °F - 42.1 °F 80% 30.12 in 10.0 mi SW 4.6 mph - 0.02 in   Overcast
2:58 AM 47.8 °F - 40.8 °F 77% 30.10 in 10.0 mi SSW 5.8 mph - N/A   Overcast
3:58 AM 48.0 °F - 40.5 °F 75% 30.09 in 10.0 mi SSW 4.6 mph - N/A   Overcast
4:01 AM 48.2 °F - 41.0 °F 76% 30.08 in 10.0 mi SSW 4.6 mph - N/A   Light Drizzle
4:12 AM 48.2 °F - 41.0 °F 76% 30.07 in 10.0 mi SSW 5.8 mph - N/A   Overcast
4:29 AM 48.2 °F - 41.0 °F 76% 30.08 in 10.0 mi SW 4.6 mph - N/A Rain Light Rain
4:58 AM 47.5 °F - 41.5 °F 80% 30.09 in 10.0 mi ENE 2.3 mph - 0.00 in   Overcast
5:58 AM 44.1 °F 42.5 °F 40.1 °F 86% 30.07 in 10.0 mi SSE 3.5 mph - N/A   Mostly Cloudy
6:58 AM 43.9 °F 39.9 °F 39.9 °F 86% 30.09 in 10.0 mi SW 6.9 mph - N/A   Partly Cloudy
7:58 AM 48.6 °F - 41.7 °F 77% 30.10 in 10.0 mi NW 10.4 mph - N/A   Partly Cloudy
8:18 AM 50.0 °F - 42.8 °F 76% 30.09 in 10.0 mi NW 12.7 mph 18.4 mph N/A   Mostly Cloudy
8:58 AM 48.7 °F - 41.2 °F 75% 30.13 in 10.0 mi NNW 12.7 mph 19.6 mph N/A   Mostly Cloudy
9:08 AM 50.0 °F - 41.0 °F 71% 30.11 in 10.0 mi NNW 13.8 mph 19.6 mph N/A   Mostly Cloudy
9:26 AM 51.8 °F - 41.0 °F 67% 30.11 in 10.0 mi NW 11.5 mph - N/A   Scattered Clouds
9:58 AM 52.5 °F - 41.0 °F 65% 30.12 in 10.0 mi NNW 16.1 mph - N/A   Partly Cloudy
10:58 AM 54.3 °F - 36.9 °F 52% 30.13 in 10.0 mi NNW 11.5 mph 20.7 mph N/A   Scattered Clouds
11:58 AM 55.6 °F - 27.7 °F 34% 30.13 in 10.0 mi WNW 18.4 mph 21.9 mph N/A   Clear
12:58 PM 57.0 °F - 24.3 °F 28% 30.13 in 10.0 mi WNW 19.6 mph 25.3 mph N/A   Partly Cloudy
1:58 PM 58.5 °F - 17.2 °F 20% 30.12 in 10.0 mi NW 17.3 mph 26.5 mph N/A   Partly Cloudy
2:56 PM 59.0 °F - 14.0 °F 17% 30.11 in 10.0 mi NNW 18.4 mph 28.8 mph N/A   Partly Cloudy
2:58 PM 59.2 °F - 15.4 °F 18% 30.12 in 10.0 mi NW 17.3 mph 29.9 mph N/A   Partly Cloudy
3:58 PM 59.0 °F - 17.4 °F 20% 30.11 in 10.0 mi WNW 15.0 mph 27.6 mph N/A   Scattered Clouds
4:58 PM 57.4 °F - 16.0 °F 20% 30.12 in 10.0 mi NW 18.4 mph 24.2 mph N/A   Scattered Clouds
5:58 PM 57.9 °F - 17.8 °F 21% 30.12 in 10.0 mi WNW 18.4 mph 24.2 mph N/A   Scattered Clouds
6:58 PM 56.7 °F - 17.8 °F 22% 30.12 in 10.0 mi NNW 13.8 mph 20.7 mph N/A   Mostly Cloudy
7:58 PM 53.6 °F - 19.2 °F 26% 30.12 in 10.0 mi NNW 9.2 mph - N/A   Partly Cloudy
8:58 PM 48.7 °F - 21.7 °F 35% 30.13 in 10.0 mi NNW 6.9 mph - N/A   Partly Cloudy
9:58 PM 46.2 °F 45.0 °F 23.4 °F 41% 30.14 in 10.0 mi North 3.5 mph - N/A   Clear
10:58 PM 47.1 °F - 28.0 °F 48% 30.14 in 10.0 mi WSW 2.3 mph - N/A   Scattered Clouds
11:58 PM 43.7 °F 41.1 °F 27.9 °F 54% 30.14 in 10.0 mi North 4.6 mph - N/A   Mostly Cloudy